Wetbulb
68.47 71.02 72.50 73.29 73.13 72.96 72.77 72.79 72.63 72.77 73.33 73.61 73.58 73.63 73.91 74.06 74.03 74.20 74.31 74.47 74.54 74.74 73.93 73.65 73.97 73.90 73.38 73.23 73.51 73.30 72.79 72.24 71.99 72.82 73.15 72.91 72.76 72.69 72.28 72.23 71.88 70.97 72.43
69.51 70.86 71.63 72.96 73.17 72.95 72.87 72.67 72.70 72.92 73.56 73.45 73.40 73.40 73.55 73.73 73.78 73.88 74.11 74.29 74.47 74.32 73.50 73.45 73.38 73.13 72.88 72.76 73.01 72.55 72.14 71.53 71.55 71.64 72.17 72.39 72.71 71.99 71.90 71.70 71.46 71.08 71.76
69.67 70.80 71.67 71.91 73.02 73.24 73.18 73.04 73.19 73.58 73.65 73.44 73.42 73.44 73.62 73.81 73.71 73.76 73.90 73.99 74.29 74.12 73.45 73.40 73.10 72.92 72.51 72.19 72.07 71.99 71.72 71.38 71.17 71.48 71.74 69.63 70.35 71.55 71.60 71.61 71.39 71.41 70.99
70.24 70.71 70.97 71.57 72.18 72.86 73.01 72.87 73.21 73.73 73.63 73.66 73.54 73.46 73.62 73.63 73.66 73.76 73.57 73.31 73.88 74.11 73.23 73.18 73.16 72.72 72.01 71.72 71.32 71.15 71.16 70.51 70.12 70.29 69.04 69.27 69.87 70.93 71.35 70.94 71.24 70.93 70.71
69.72 70.53 70.99 70.97 71.35 72.20 72.42 72.89 73.01 73.43 73.02 73.20 73.08 73.64 73.70 73.76 73.66 73.49 72.76 72.24 73.19 74.08 73.63 73.33 73.03 72.09 71.27 70.58 70.34 70.35 70.23 69.82 69.45 68.78 67.12 68.43 68.84 70.59 71.29 70.96 70.61 70.44 70.03
68.92 69.74 69.68 69.95 70.89 71.95 72.43 72.76 72.81 72.73 72.18 72.34 72.76 73.27 73.65 73.66 73.66 72.93 72.06 71.75 73.00 73.56 73.62 73.47 72.58 71.43 70.16 69.60 69.66 69.57 69.28 68.17 67.52 66.65 66.79 69.34 68.33 70.90 70.96 70.17 69.69 69.41 69.14
68.40 69.18 69.43 69.12 70.46 72.03 72.73 72.92 72.42 71.34 71.51 72.00 72.67 72.84 73.00 73.36 73.19 72.19 71.68 71.68 72.23 72.89 72.90 72.87 71.76 70.43 69.62 69.20 69.36 68.60 67.35 67.26 66.64 65.21 66.03 66.52 68.16 70.43 70.28 69.62 69.38 69.19 68.95
67.91 68.62 68.98 69.83 70.60 71.28 71.87 71.96 70.90 70.42 70.84 71.35 71.89 72.24 72.56 72.32 72.14 71.56 71.35 71.15 71.25 71.61 71.50 71.16 70.23 69.76 69.24 69.10 68.66 66.86 66.54 66.80 66.77 65.35 66.50 67.12 68.90 69.68 69.86 68.99 68.77 68.32 68.24
67.99 67.84 68.02 68.70 70.18 69.96 69.72 69.92 69.53 70.05 70.41 70.82 71.06 71.17 71.07 70.48 70.41 70.84 70.92 70.82 70.64 70.76 70.69 70.23 69.56 68.98 68.89 68.57 67.28 66.09 65.21 65.43 65.25 65.22 66.36 67.17 69.27 69.07 69.35 68.33 67.84 67.54 67.06
67.06 67.42 67.30 67.48 68.18 68.97 69.69 68.90 68.90 69.22 69.03 68.99 70.00 69.94 69.22 69.32 69.36 69.75 69.82 70.14 69.94 70.19 70.11 69.72 68.78 68.31 68.22 67.10 65.59 65.17 65.25 64.66 64.50 64.88 66.03 66.52 69.18 69.75 69.08 68.06 67.37 66.81 66.33
66.83 66.61 67.12 67.21 66.56 66.40 67.37 69.42 69.17 69.65 68.73 68.14 68.51 68.45 67.66 68.54 68.59 68.80 68.45 68.82 69.18 68.93 69.02 68.96 68.18 67.53 66.72 65.82 65.10 64.75 64.86 64.03 64.83 64.98 64.95 66.76 68.43 69.25 68.62 67.50 66.79 66.18 65.77
65.92 66.12 66.99 66.76 66.45 66.01 68.05 67.78 67.61 69.15 68.56 67.82 67.84 67.80 67.57 67.03 67.14 68.15 67.51 67.48 68.02 67.76 67.96 67.78 67.21 66.56 65.35 63.15 63.53 64.33 63.20 63.88 64.51 64.50 64.48 66.36 67.99 68.77 68.16 67.12 66.47 65.71 65.19
67.50 67.10 67.37 66.81 66.65 66.43 66.70 66.35 66.66 67.36 67.16 67.09 66.94 66.62 66.46 66.56 66.28 65.86 65.18 66.14 65.30 66.72 66.15 65.90 65.76 63.50 62.03 61.89 62.12 62.44 62.83 64.16 63.73 64.92 65.12 65.72 67.46 68.28 67.95 66.65 65.67 65.49 65.09
68.05 67.97 67.69 67.37 67.24 66.94 67.10 66.08 66.15 66.37 66.17 66.57 66.82 66.33 66.39 66.10 65.29 64.32 64.43 64.19 63.79 63.25 65.15 65.28 64.15 61.68 61.24 61.85 61.89 62.15 62.36 63.29 63.16 64.11 64.71 64.85 66.24 68.12 67.64 66.74 65.52 65.08 64.69
67.76 68.78 68.22 68.13 67.52 67.80 67.21 66.54 66.24 66.11 66.13 65.95 65.95 66.56 66.71 65.78 65.54 64.89 63.83 63.80 63.60 63.64 63.59 63.05 61.37 61.20 60.45 60.97 61.67 61.72 61.61 62.69 63.17 63.47 63.98 63.43 64.57 66.75 67.41 66.55 65.71 65.25 64.58
67.78 68.35 68.92 68.48 68.25 68.15 67.52 67.28 66.77 66.79 66.56 66.20 66.11 66.48 66.47 65.79 64.98 64.53 64.07 63.62 63.28 63.67 63.15 62.44 61.74 60.82 59.99 59.79 59.99 60.58 61.17 62.41 62.76 62.84 63.85 64.01 62.93 64.48 65.93 66.69 65.88 65.40 64.65
67.15 68.22 68.48 68.76 68.49 67.82 67.11 67.63 67.45 66.99 67.31 66.81 66.56 66.23 66.36 65.56 64.32 63.96 63.92 63.55 63.85 63.64 62.32 61.76 60.54 59.32 58.77 59.43 59.02 60.07 61.53 61.99 62.37 62.82 63.40 63.52 63.29 62.18 63.73 65.27 65.61 65.48 64.69
65.94 66.60 67.83 69.31 68.32 67.78 67.36 67.69 67.76 66.89 67.30 66.70 66.42 66.63 66.16 65.85 64.89 63.77 63.43 63.20 62.74 63.17 62.82 61.64 61.62 60.78 59.83 60.41 58.55 59.16 60.34 62.10 62.60 62.54 62.99 63.06 62.87 63.09 62.22 63.27 64.16 64.60 64.59
54.71 65.34 66.57 67.93 67.83 67.67 67.59 67.39 67.54 66.49 66.68 66.01 65.33 65.98 66.16 66.01 65.22 64.20 63.47 62.64 62.75 62.31 62.40 62.12 61.82 61.62 60.42 60.03 60.30 59.89 60.96 61.29 62.31 63.06 62.29 62.13 61.33 60.67 61.17 61.95 62.29 62.50 63.55
50.56 59.21 65.86 67.07 67.25 67.98 67.50 66.50 66.03 65.05 64.58 65.28 64.97 64.71 64.58 65.83 65.22 63.82 63.00 62.57 63.50 63.45 62.08 61.81 61.63 61.71 61.20 60.17 60.40 60.53 60.53 61.39 62.00 62.17 61.75 61.87 60.73 59.19 59.63 61.03 61.57 61.07 61.23
49.49 52.36 64.02 65.54 66.79 67.64 66.50 64.96 64.27 64.25 63.66 63.75 64.37 64.38 63.67 63.91 65.02 63.87 63.05 62.35 62.25 62.95 62.72 62.42 61.85 61.00 60.22 61.11 59.88 59.72 59.13 60.21 60.98 61.36 61.17 60.87 59.31 59.20 58.94 59.84 60.52 60.11 60.87
50.43 52.19 62.66 65.13 66.59 67.18 66.97 66.54 65.26 64.43 62.74 63.51 63.26 63.57 64.01 63.29 63.50 63.35 62.83 62.18 61.88 62.00 61.70 62.41 61.47 60.26 60.38 61.04 57.91 57.57 53.82 56.22 59.46 60.12 60.09 59.85 58.79 59.12 58.88 59.78 59.89 59.45 59.71
54.41 54.93 60.10 64.40 66.59 67.18 67.23 65.47 62.75 61.62 61.34 60.22 61.74 62.77 62.90 63.41 63.46 63.63 62.71 62.14 61.29 61.74 61.62 61.30 61.32 60.37 58.63 59.88 59.49 56.76 52.38 51.59 55.58 58.45 58.83 58.98 58.06 57.75 58.30 59.11 59.21 59.75 59.24
50.94 54.34 56.02 59.35 65.34 66.81 66.89 64.91 63.57 62.99 61.49 62.54 62.50 62.69 62.44 63.03 63.01 63.02 62.43 61.42 61.34 61.54 61.13 60.51 60.91 60.09 58.72 57.26 59.17 59.19 57.22 55.90 53.09 51.65 56.78 57.82 57.90 57.16 57.09 57.92 58.51 58.65 58.49
47.90 49.36 52.16 54.13 57.05 64.52 65.29 65.50 64.26 63.84 63.86 60.56 61.22 60.78 62.07 62.25 62.48 62.68 61.58 60.35 59.17 58.29 57.84 58.79 59.32 59.06 59.03 57.91 58.03 56.14 56.80 55.60 55.21 54.34 52.41 53.91 55.75 57.12 57.73 57.99 58.07 57.87 57.96
45.09 46.23 48.17 49.39 51.67 55.33 59.43 64.16 63.90 63.20 61.99 60.55 60.61 60.54 60.86 61.21 60.58 61.72 61.18 59.92 58.84 57.36 56.56 57.24 58.64 58.85 58.56 58.74 58.62 57.26 55.75 54.58 53.86 54.36 53.68 53.56 54.19 55.37 56.56 57.50 57.62 57.92 58.01
MSLP
1008.49 1008.38 1008.66 1009.08 1009.19 1009.16 1009.41 1009.75 1010.09 1010.36 1010.69 1011.00 1011.17 1011.44 1011.73 1011.98 1012.27 1012.60 1012.92 1013.22 1013.42 1013.70 1013.95 1014.18 1014.35 1014.53 1014.58 1014.76 1015.01 1015.19 1015.34 1015.48 1015.62 1015.90 1016.18 1016.42 1016.69 1016.71 1017.04 1017.06 1017.30 1017.34 1017.62
1007.46 1008.25 1008.59 1009.01 1009.28 1009.22 1009.47 1009.95 1010.24 1010.56 1010.89 1011.23 1011.48 1011.70 1012.01 1012.23 1012.45 1012.77 1013.07 1013.39 1013.63 1013.84 1014.03 1014.35 1014.56 1014.85 1015.04 1015.27 1015.42 1015.62 1015.68 1015.77 1015.91 1016.29 1016.49 1016.87 1016.87 1017.06 1017.33 1017.49 1017.81 1017.85 1017.98
1007.53 1008.09 1008.60 1008.98 1009.30 1009.34 1009.56 1010.09 1010.45 1010.81 1011.05 1011.39 1011.72 1011.97 1012.17 1012.41 1012.61 1012.84 1013.04 1013.34 1013.66 1013.89 1014.16 1014.39 1014.76 1015.08 1015.37 1015.61 1015.83 1015.99 1016.13 1016.21 1016.32 1016.44 1016.65 1017.07 1017.23 1017.42 1017.66 1017.96 1018.04 1018.22 1018.51
1007.47 1008.03 1008.44 1008.94 1009.26 1009.49 1009.67 1010.13 1010.56 1011.01 1011.30 1011.61 1011.87 1012.15 1012.36 1012.47 1012.70 1012.95 1013.18 1013.46 1013.71 1013.99 1014.24 1014.56 1014.91 1015.20 1015.52 1015.80 1016.00 1016.20 1016.54 1016.59 1016.71 1016.83 1017.05 1017.12 1017.49 1017.77 1018.00 1018.15 1018.35 1018.59 1018.84
1007.58 1007.95 1008.37 1008.79 1009.25 1009.51 1009.75 1010.09 1010.60 1011.10 1011.48 1011.76 1011.98 1012.25 1012.46 1012.61 1012.85 1013.15 1013.39 1013.56 1013.76 1014.07 1014.37 1014.62 1015.09 1015.44 1015.74 1016.02 1016.21 1016.35 1016.60 1017.00 1017.11 1017.24 1017.39 1017.30 1017.62 1017.88 1018.22 1018.47 1018.81 1019.05 1019.25
1007.71 1007.93 1008.38 1008.73 1009.05 1009.42 1009.73 1010.02 1010.48 1011.05 1011.52 1011.80 1012.08 1012.31 1012.55 1012.76 1012.94 1013.35 1013.60 1013.81 1014.00 1014.21 1014.57 1014.90 1015.27 1015.69 1016.08 1016.31 1016.56 1016.57 1016.87 1017.11 1017.39 1017.56 1017.66 1017.60 1017.73 1018.16 1018.40 1018.84 1019.09 1019.35 1019.54
1007.47 1007.88 1008.49 1008.71 1008.86 1009.23 1009.58 1009.89 1010.33 1010.96 1011.48 1011.74 1012.00 1012.25 1012.56 1012.82 1013.03 1013.42 1013.77 1014.02 1014.33 1014.45 1014.71 1015.10 1015.47 1015.77 1016.10 1016.34 1016.59 1016.71 1017.08 1017.30 1017.58 1017.83 1017.83 1017.96 1017.92 1018.36 1018.61 1019.13 1019.41 1019.48 1019.74
1006.98 1007.80 1008.45 1008.94 1008.85 1009.04 1009.19 1009.90 1010.18 1010.79 1011.33 1011.76 1012.01 1012.25 1012.49 1012.75 1013.09 1013.50 1013.87 1014.14 1014.46 1014.71 1014.97 1015.31 1015.66 1015.84 1016.17 1016.47 1016.63 1016.93 1017.05 1017.34 1017.69 1017.99 1018.02 1018.20 1018.34 1018.39 1018.96 1019.41 1019.59 1019.86 1020.04
1006.98 1007.83 1008.39 1008.90 1009.14 1009.13 1009.21 1009.69 1010.25 1010.55 1011.09 1011.59 1012.02 1012.26 1012.47 1012.61 1013.06 1013.50 1013.83 1014.22 1014.56 1014.83 1015.07 1015.45 1015.74 1015.92 1016.15 1016.47 1016.84 1017.04 1017.25 1017.19 1017.85 1018.13 1018.20 1018.46 1018.71 1018.54 1019.34 1019.68 1019.87 1020.24 1020.54
1007.44 1007.71 1008.34 1008.75 1009.10 1009.41 1009.49 1009.66 1010.24 1010.42 1010.79 1011.41 1011.80 1012.25 1012.51 1012.66 1012.97 1013.36 1013.74 1014.05 1014.40 1014.84 1015.21 1015.55 1015.79 1016.03 1016.23 1016.62 1016.96 1017.18 1017.28 1017.61 1017.72 1018.10 1018.27 1018.55 1018.77 1019.04 1019.42 1019.71 1020.07 1020.54 1020.80
1007.77 1007.91 1008.22 1008.71 1008.99 1009.44 1009.66 1009.89 1010.28 1010.43 1010.60 1011.21 1011.70 1012.06 1012.56 1012.83 1013.00 1013.33 1013.62 1014.05 1014.37 1014.80 1015.20 1015.52 1015.81 1016.00 1016.35 1016.80 1017.19 1017.35 1017.59 1017.70 1018.02 1018.01 1018.29 1018.44 1018.71 1019.07 1019.48 1019.89 1020.23 1020.65 1020.90
1007.66 1008.09 1008.21 1008.63 1008.91 1009.34 1009.67 1010.00 1010.26 1010.45 1010.64 1010.93 1011.56 1012.02 1012.48 1012.88 1013.11 1013.34 1013.62 1013.93 1014.36 1014.72 1015.17 1015.59 1015.90 1016.10 1016.50 1016.99 1017.28 1017.44 1017.63 1017.76 1017.62 1018.04 1018.37 1018.57 1018.80 1019.21 1019.67 1020.03 1020.17 1020.53 1020.97
1006.50 1007.45 1007.96 1008.42 1008.81 1009.21 1009.62 1010.03 1010.23 1010.30 1010.57 1010.81 1011.26 1011.79 1012.32 1012.75 1013.14 1013.40 1013.66 1013.96 1014.35 1014.61 1015.16 1015.64 1016.02 1016.24 1016.47 1016.84 1017.23 1017.37 1017.51 1017.48 1017.70 1017.99 1018.13 1018.50 1018.71 1019.16 1019.66 1019.98 1020.23 1020.35 1020.92
1006.11 1006.38 1007.02 1007.68 1008.43 1008.88 1009.22 1009.76 1009.93 1010.20 1010.31 1010.54 1010.86 1011.48 1012.05 1012.56 1012.96 1013.28 1013.54 1013.83 1014.17 1014.57 1015.05 1015.53 1016.04 1016.22 1016.47 1016.70 1017.07 1017.21 1017.47 1017.39 1017.67 1018.01 1018.16 1018.21 1018.58 1019.04 1019.45 1019.77 1020.10 1020.42 1020.94
1005.26 1005.79 1006.11 1006.60 1007.32 1007.95 1008.70 1009.27 1009.65 1009.88 1010.11 1010.10 1010.48 1011.00 1011.53 1012.20 1012.67 1012.86 1013.33 1013.63 1013.96 1014.32 1014.75 1015.30 1015.90 1016.30 1016.49 1016.74 1017.03 1017.23 1017.43 1017.54 1017.63 1017.98 1018.25 1018.24 1018.52 1018.93 1019.21 1019.62 1019.75 1020.33 1020.99
1004.38 1004.95 1005.50 1006.11 1006.68 1007.12 1007.53 1008.34 1008.86 1009.30 1009.58 1009.91 1010.12 1010.46 1010.99 1011.60 1012.13 1012.63 1013.08 1013.45 1013.79 1014.10 1014.51 1014.87 1015.47 1016.03 1016.45 1016.68 1017.06 1017.18 1017.38 1017.53 1017.57 1017.87 1018.19 1018.46 1018.57 1018.72 1019.00 1019.46 1019.56 1020.05 1020.83
1003.78 1004.00 1004.75 1005.33 1005.98 1006.59 1006.88 1007.46 1008.08 1008.57 1009.04 1009.66 1009.80 1010.10 1010.53 1011.11 1011.53 1012.08 1012.64 1013.15 1013.42 1013.83 1014.38 1014.83 1015.39 1015.92 1016.47 1016.61 1017.01 1017.14 1017.31 1017.44 1017.51 1017.71 1017.91 1018.44 1018.67 1018.79 1019.16 1019.42 1019.66 1019.94 1020.61
1003.12 1003.89 1004.22 1004.74 1005.30 1005.71 1006.18 1006.81 1007.32 1007.81 1008.41 1008.96 1009.38 1009.76 1010.10 1010.71 1011.15 1011.71 1012.21 1012.69 1013.09 1013.58 1014.09 1014.75 1015.22 1015.84 1016.30 1016.66 1016.85 1017.14 1017.34 1017.38 1017.47 1017.66 1017.82 1018.21 1018.57 1018.74 1019.17 1019.41 1019.67 1019.97 1020.50
1002.45 1002.83 1003.62 1003.99 1004.62 1005.18 1005.61 1006.17 1006.68 1007.28 1007.73 1008.12 1008.73 1009.27 1009.67 1010.26 1010.73 1011.23 1011.75 1012.20 1012.60 1013.27 1013.91 1014.48 1014.95 1015.34 1015.95 1016.49 1016.71 1017.01 1017.25 1017.33 1017.30 1017.46 1017.60 1017.99 1018.35 1018.78 1019.01 1019.41 1019.73 1020.07 1020.46
1001.25 1001.91 1002.48 1003.22 1003.65 1004.36 1005.21 1005.97 1006.50 1007.26 1007.70 1007.88 1008.26 1008.84 1009.33 1009.86 1010.29 1010.87 1011.42 1011.93 1012.26 1012.93 1013.57 1014.22 1014.65 1015.01 1015.39 1015.96 1016.38 1016.58 1016.99 1017.05 1017.01 1017.08 1017.38 1017.77 1018.26 1018.75 1019.03 1019.32 1019.81 1020.14 1020.48
1000.71 1001.36 1001.67 1002.31 1002.97 1003.93 1004.74 1005.73 1006.37 1006.60 1007.11 1007.64 1007.85 1008.16 1008.89 1009.39 1009.89 1010.49 1011.13 1011.63 1012.13 1012.45 1012.98 1013.55 1014.12 1014.61 1014.99 1015.48 1015.91 1016.28 1016.55 1016.70 1016.81 1016.93 1016.96 1017.56 1018.16 1018.62 1019.02 1019.30 1019.75 1020.08 1020.48
1001.23 1001.18 1001.11 1001.53 1002.14 1002.75 1003.56 1004.18 1005.32 1006.03 1006.93 1007.33 1007.94 1008.16 1008.34 1008.96 1009.51 1010.14 1010.66 1011.17 1011.75 1012.23 1012.67 1013.17 1013.54 1014.05 1014.58 1014.91 1015.34 1015.87 1016.16 1016.57 1016.68 1016.75 1017.01 1017.40 1017.90 1018.27 1018.81 1019.08 1019.46 1019.94 1020.32
1002.55 1002.46 1001.90 1001.47 1001.20 1001.82 1002.47 1003.99 1005.06 1006.09 1006.97 1007.56 1007.85 1007.89 1008.09 1008.51 1009.05 1009.68 1010.32 1010.81 1011.30 1011.80 1012.25 1012.72 1012.96 1013.40 1013.93 1014.43 1014.74 1015.10 1015.65 1015.64 1015.91 1016.46 1016.71 1017.20 1017.59 1018.17 1018.45 1018.85 1019.18 1019.61 1019.94
1003.94 1003.61 1002.75 1002.57 1002.55 1001.99 1001.89 1003.12 1003.96 1004.52 1005.32 1005.79 1006.31 1007.16 1007.58 1008.10 1008.71 1009.24 1009.92 1010.59 1010.95 1011.41 1011.81 1012.25 1012.65 1012.91 1013.39 1013.90 1014.43 1014.57 1014.55 1014.88 1015.23 1015.94 1016.61 1017.05 1017.35 1017.89 1018.20 1018.54 1018.92 1019.26 1019.59
1005.09 1004.66 1004.02 1003.77 1003.31 1003.05 1003.26 1002.91 1002.74 1003.62 1004.21 1004.99 1005.93 1006.67 1007.03 1007.59 1008.08 1008.80 1009.39 1010.12 1010.68 1010.99 1011.32 1011.62 1012.29 1012.68 1013.00 1013.37 1013.70 1014.17 1014.34 1014.38 1014.27 1014.19 1015.79 1016.68 1017.41 1017.55 1017.83 1018.06 1018.39 1018.86 1019.20
1005.80 1005.71 1005.10 1004.72 1004.50 1004.22 1003.85 1003.58 1003.45 1003.52 1004.35 1005.10 1005.75 1006.26 1006.60 1007.14 1007.63 1008.24 1008.92 1009.52 1010.19 1010.73 1011.09 1011.42 1011.87 1012.47 1012.75 1013.02 1013.27 1013.50 1013.53 1013.42 1013.56 1014.04 1015.02 1016.06 1016.70 1017.31 1017.54 1017.84 1018.10 1018.39 1018.62
Wind_Speed
8 11 14 13 13 15 15 14 13 13 13 12 13 15 16 17 17 16 16 15 15 15 15 14 12 11 13 13 13 12 12 13 14 16 17 20 21 21 19 17 16 15 18
16 12 13 13 13 15 15 14 13 12 12 12 12 13 14 16 17 17 16 15 15 15 16 14 13 12 12 12 12 12 12 14 15 17 18 17 19 20 19 17 16 15 18
15 12 12 13 13 14 15 14 13 13 13 13 12 12 13 14 15 16 16 15 15 15 16 15 14 14 13 13 12 12 12 14 14 15 15 7 11 20 20 17 17 18 19
15 12 12 13 13 13 14 14 14 13 13 12 12 12 13 13 13 14 14 13 13 14 15 15 14 14 14 12 12 13 12 13 13 13 7 10 11 20 20 20 19 20 20
13 12 12 14 13 14 14 14 13 13 12 12 12 13 13 12 13 12 12 11 12 13 13 15 14 14 12 11 11 12 13 11 11 8 5 9 9 17 21 20 18 18 16
12 11 13 15 15 15 15 16 15 13 12 12 12 13 13 12 12 11 10 10 10 12 12 13 13 12 11 11 10 11 11 9 7 6 5 11 10 19 21 18 16 16 15
13 10 12 14 16 17 16 16 16 14 12 12 13 12 12 11 12 11 10 9 9 10 11 11 12 12 12 11 11 10 10 6 5 4 5 5 12 20 20 18 15 16 16
16 13 11 13 15 16 17 16 16 16 14 12 12 12 12 11 11 11 10 10 9 9 10 12 11 12 11 10 9 11 10 7 5 4 5 5 15 17 19 17 15 16 16
14 13 9 8 10 13 14 15 14 15 14 13 11 11 11 11 11 11 11 10 10 9 11 12 12 12 12 10 10 10 9 12 6 3 5 7 16 14 17 17 16 17 16
11 12 11 7 7 7 9 14 14 15 14 12 13 12 10 10 11 11 11 11 11 10 11 12 12 10 10 9 10 11 10 7 5 5 6 6 19 21 19 19 18 17 18
7 10 10 10 7 6 6 9 11 14 14 12 9 10 8 4 6 8 8 11 11 11 11 11 11 11 9 8 10 10 8 3 4 3 3 14 19 20 19 19 19 18 18
10 9 9 9 9 7 6 7 6 8 7 7 6 6 4 5 4 6 7 11 10 12 12 11 11 11 9 4 4 8 3 3 5 5 4 12 18 20 20 20 21 20 18
15 10 11 10 9 10 7 5 4 4 5 5 7 6 5 4 4 3 3 4 4 9 4 6 6 4 6 4 4 4 4 5 2 2 6 11 18 19 20 21 20 19 17
16 16 15 14 12 10 6 7 6 6 6 6 7 8 6 4 5 4 4 5 5 4 8 7 4 4 5 5 5 5 4 3 3 2 4 14 16 18 21 21 19 17 17
15 14 17 16 16 14 11 8 7 7 7 7 8 8 7 6 7 6 5 5 5 5 6 7 5 4 5 5 5 5 5 5 5 3 2 10 14 19 20 21 20 19 18
17 17 17 17 15 15 14 13 9 7 7 7 7 8 9 7 7 7 6 6 6 6 6 6 7 6 5 4 5 5 5 4 5 5 3 6 11 17 18 19 21 21 19
14 18 18 18 16 16 16 13 10 8 8 7 7 9 10 9 8 8 7 6 7 6 6 5 5 4 4 4 5 4 4 4 6 8 7 5 8 11 12 16 17 19 20
16 15 16 14 17 18 16 13 10 10 9 8 7 8 11 9 9 7 7 6 6 6 7 7 8 7 5 6 4 4 4 4 6 8 8 6 6 7 9 12 15 17 18
15 17 17 18 18 18 15 11 11 11 9 9 7 8 10 10 10 8 7 6 8 6 6 7 6 8 7 6 5 4 3 5 6 6 9 9 8 6 6 10 12 13 16
9 15 19 17 18 18 11 6 6 7 6 8 8 8 10 9 10 8 6 7 8 7 7 6 8 8 6 6 6 5 5 5 6 5 9 8 8 6 5 8 8 8 13
8 8 17 19 18 13 11 10 8 12 9 7 7 10 10 8 9 9 7 8 8 9 9 9 7 8 5 7 4 4 4 5 6 5 7 8 8 8 7 6 5 5 7
6 5 13 19 18 17 13 12 7 8 4 6 5 8 10 9 8 9 9 9 9 6 8 10 9 4 4 7 3 2 2 2 6 7 6 9 11 8 8 8 8 8 8
14 13 4 12 20 19 18 8 5 5 4 3 5 7 8 11 10 9 9 8 9 8 9 10 10 11 6 5 8 3 3 4 5 4 7 8 10 8 8 8 9 10 9
13 12 14 9 5 12 18 14 16 14 11 9 9 8 9 12 11 9 10 9 9 7 9 10 7 7 5 7 4 8 2 3 6 4 4 6 8 9 8 7 8 9 10
11 11 12 13 12 5 7 12 15 15 11 3 7 12 12 10 11 10 11 10 9 7 7 9 7 7 6 5 6 3 7 3 1 5 7 5 3 7 7 8 8 8 9
11 11 11 13 10 10 8 7 9 11 7 8 10 10 10 9 7 9 10 10 9 7 8 6 6 8 8 6 6 6 5 7 6 7 8 7 7 5 6 6 7 8 8
Wind_Direction
165 157 152 154 147 138 133 127 122 118 118 120 117 117 116 117 117 118 119 119 122 125 124 116 112 107 110 112 106 103 107 108 111 113 117 121 121 116 113 107 108 108 107
142 154 148 151 151 141 135 132 129 128 127 126 121 117 117 121 124 126 125 126 129 130 125 118 113 107 107 105 103 106 108 113 114 113 119 121 121 120 112 107 108 106 106
139 148 150 149 151 143 137 136 136 137 136 134 128 125 126 128 129 131 134 135 135 135 132 128 122 116 115 114 116 116 111 108 110 117 116 115 117 121 117 112 109 108 108
139 147 150 153 150 144 139 140 143 146 143 140 139 135 137 139 138 136 136 134 137 137 137 133 131 128 125 123 127 124 117 111 112 112 110 117 122 126 121 117 116 115 114
141 150 155 152 149 144 142 141 144 149 148 147 146 146 150 149 145 142 142 143 142 143 143 139 134 131 126 127 128 129 130 119 118 107 106 121 132 132 126 120 116 114 115
146 152 153 155 149 147 146 147 148 149 154 153 154 156 160 159 151 149 152 150 147 142 142 141 136 130 130 131 136 141 140 109 121 119 120 134 141 134 125 123 126 126 122
148 147 158 159 150 150 147 149 151 158 158 160 161 163 166 162 156 158 159 154 145 141 141 138 135 136 143 147 152 151 102 89 119 138 151 148 136 135 129 127 121 117 111
145 148 157 162 152 151 148 154 154 160 162 164 166 168 168 163 160 161 161 158 149 146 135 138 142 144 152 158 165 113 120 99 118 113 129 102 124 133 129 130 122 112 112
140 144 149 157 158 153 151 153 157 154 157 166 169 173 172 166 165 165 165 158 159 153 142 147 150 156 163 169 116 132 129 115 123 137 122 121 136 141 142 135 124 119 119
140 144 148 149 157 161 158 154 161 159 161 173 167 176 176 172 167 171 168 164 163 157 147 156 158 169 171 170 128 142 138 106 136 154 143 166 157 159 151 143 138 138 140
137 150 152 157 156 156 153 164 164 164 162 168 172 164 168 177 174 178 167 166 165 155 155 161 161 167 164 146 125 134 142 132 134 142 137 166 162 159 154 150 147 148 147
156 163 162 166 163 156 164 165 167 168 166 160 160 162 156 171 177 169 163 163 163 156 154 161 160 160 152 138 122 129 142 218 157 163 159 178 166 165 161 158 154 148 145
167 161 173 171 169 166 170 171 172 168 165 164 161 161 164 164 175 165 152 155 158 146 148 147 153 160 163 153 159 151 148 135 107 157 168 179 168 168 165 162 157 144 150
172 176 173 171 174 177 166 179 181 178 175 172 174 172 167 172 176 171 168 163 162 151 154 166 180 168 170 167 164 163 158 127 142 154 194 173 173 173 169 165 158 152 160
179 180 181 174 175 175 174 180 184 189 187 180 175 178 171 177 182 169 173 170 172 159 163 168 164 173 169 171 169 164 160 162 168 162 230 190 179 179 175 173 160 162 169
188 184 180 185 184 177 178 180 183 186 184 185 181 181 176 176 177 177 172 179 176 179 169 164 170 171 181 166 183 179 181 180 185 177 178 194 204 185 176 177 168 167 172
199 191 184 184 182 185 185 181 180 182 178 186 185 178 176 178 175 176 172 175 183 177 159 148 147 136 148 164 192 184 173 187 182 184 170 191 197 176 176 175 170 168 173
195 194 193 189 187 187 186 185 184 178 180 180 178 179 179 181 174 175 176 178 164 163 169 170 171 173 176 189 183 189 194 190 177 182 176 180 182 178 178 173 174 172 174
191 195 192 190 188 194 191 184 184 177 176 173 168 177 178 182 180 176 178 171 162 157 166 170 176 182 181 190 201 186 195 198 183 175 188 185 180 170 170 177 171 172 175
217 189 185 192 193 191 188 163 157 164 177 176 176 175 172 181 177 172 166 165 167 165 164 172 183 189 183 184 201 191 207 209 177 171 195 178 176 165 161 169 177 178 172
227 169 182 184 193 180 175 173 174 187 180 182 184 170 175 173 175 170 171 169 169 177 174 181 181 188 184 182 162 197 198 191 179 185 187 178 177 175 169 164 167 169 184
341 247 182 186 183 186 183 191 180 167 183 177 172 178 177 177 173 171 176 182 179 171 173 186 177 163 183 173 169 170 185 158 196 196 181 183 181 176 181 178 171 177 177
38 8 279 202 183 188 188 157 120 95 86 113 198 190 187 183 186 180 183 180 176 178 193 198 187 179 188 184 190 164 170 195 150 174 181 187 174 180 184 178 179 185 179
27 15 23 13 244 205 178 171 170 178 174 198 188 185 179 183 185 181 179 183 180 183 184 189 184 183 156 195 194 215 191 177 169 160 172 190 179 185 182 182 188 190 184
23 21 15 11 11 302 235 207 177 183 191 131 164 173 182 181 182 181 177 177 181 180 184 169 172 185 200 195 200 165 217 173 108 168 159 156 161 193 186 186 187 190 189
25 26 14 8 358 342 336 237 212 197 172 166 173 179 177 179 174 179 178 178 178 177 172 172 177 198 197 200 200 196 187 189 162 158 146 156 173 175 186 193 189 195 194